Weather History for Concordia, KS

Change the Weather History Date:

Wednesday, October 8, 2014

  Actual Average Record
Temperature  
Mean Temperature 60 °F 58 °F  
Max Temperature 73 °F 70 °F 91 °F (1980)
Min Temperature 47 °F 47 °F 21 °F (2000)
Degree Days  
Heating Degree Days 5 8  
Month to date heating degree days 51 54  
Since 1 July heating degree days 135 127  
Cooling Degree Days 0 1  
Month to date cooling degree days 8 12  
Year to date cooling degree days 1352 1338  
Growing Degree Days 10 (Base 50)    
Moisture  
Dew Point 44 °F    
Average Humidity 58    
Maximum Humidity 80    
Minimum Humidity 35    
Precipitation  
Precipitation 0.00 in 0.06 in 1.96 in (1909)
Month to date precipitation 1.10 0.59  
Year to date precipitation 25.01 24.60  
Snow  
Snow 0.00 in 0.00 in 2.50 in (1992)
Month to date snowfall 0.0 0.0  
Year to date snowfall 16.9 13.7  
Since 1 July snowfall 0.0 0.0  
Snow Depth 0.00 in    
Sea Level Pressure  
Sea Level Pressure 30.02 in    
Wind  
Wind Speed 7 mph (East)    
Max Wind Speed 16 mph    
Max Gust Speed 22 mph    
Visibility 10 miles    
Events      
T = Trace of Precipitation, MM = Missing Value Source: NWS Daily Summary

Daily Weather History Graph

Daily Weather History Graph

Search for Another Location

Airport:

Trip Planner

Search our weather history database for the weather conditions in past years. The results will help you decide how hot, cold, wet, or windy it might be!

Date:

Astronomy

Oct. 08, 2014 Rise Set
Actual Time 7:33 AM CDT 7:01 PM CDT
Civil Twilight 7:06 AM CDT 7:28 PM CDT
Nautical Twilight 6:35 AM CDT 7:59 PM CDT
Astronomical Twilight 6:04 AM CDT 8:31 PM CDT
Moon 7:18 PM CDT (10/8) 7:41 AM CDT (10/8)
Length of Visible Light 12h 22m
Length of Day
11h 28m
Full, 100% of the Moon is Illuminated
Oct 8
Full
Oct 15
Last Quarter
Oct 23
New
Oct 30
First Quarter
Nov 6
Full

Hourly Weather History & Observations

Time (CDT) Temp. Dew Point Humidity Pressure Visibility Wind Dir Wind Speed Gust Speed Precip Events Conditions
12:55 AM 55.0 °F 46.0 °F 72% 30.02 in 10.0 mi ENE 3.5 mph - N/A   Clear
1:55 AM 54.0 °F 45.0 °F 72% 30.03 in 10.0 mi Calm Calm - N/A   Clear
2:55 AM 54.0 °F 42.1 °F 64% 30.05 in 10.0 mi East 3.5 mph - N/A   Clear
3:55 AM 52.0 °F 42.1 °F 69% 30.06 in 10.0 mi Calm Calm - N/A   Clear
4:55 AM 52.0 °F 43.0 °F 71% 30.07 in 10.0 mi NE 4.6 mph - N/A   Clear
5:55 AM 51.1 °F 43.0 °F 74% 30.07 in 10.0 mi East 5.8 mph - N/A   Clear
6:55 AM 48.9 °F 42.1 °F 77% 30.08 in 10.0 mi ENE 5.8 mph - N/A   Clear
7:55 AM 48.0 °F 42.1 °F 80% 30.10 in 10.0 mi East 4.6 mph - N/A   Clear
8:55 AM 51.1 °F 43.0 °F 74% 30.10 in 10.0 mi East 5.8 mph - N/A   Clear
9:55 AM 57.0 °F 42.1 °F 57% 30.10 in 10.0 mi East 10.4 mph - N/A   Clear
10:55 AM 60.1 °F 39.0 °F 46% 30.09 in 10.0 mi East 12.7 mph - N/A   Clear
11:55 AM 66.0 °F 41.0 °F 40% 30.09 in 10.0 mi East 11.5 mph - N/A   Clear
12:55 PM 68.0 °F 42.1 °F 39% 30.07 in 10.0 mi East 10.4 mph - N/A   Clear
1:55 PM 71.1 °F 42.1 °F 35% 30.04 in 10.0 mi East 9.2 mph - N/A   Clear
2:55 PM 73.0 °F 44.1 °F 35% 30.00 in 10.0 mi East 11.5 mph - N/A   Clear
3:55 PM 71.1 °F 44.1 °F 38% 29.99 in 10.0 mi ESE 10.4 mph - N/A   Partly Cloudy
4:55 PM 71.1 °F 44.1 °F 38% 29.96 in 10.0 mi ESE 11.5 mph - N/A   Overcast
5:55 PM 69.1 °F 45.0 °F 42% 29.95 in 10.0 mi East 10.4 mph - N/A   Clear
6:55 PM 66.0 °F 46.9 °F 50% 29.95 in 10.0 mi East 6.9 mph - N/A   Clear
7:55 PM 64.9 °F 46.9 °F 52% 29.96 in 10.0 mi East 5.8 mph - N/A   Overcast
8:55 PM 64.0 °F 48.0 °F 56% 29.96 in 10.0 mi East 6.9 mph - N/A   Overcast
9:55 PM 62.1 °F 48.9 °F 62% 29.96 in 10.0 mi East 4.6 mph - N/A   Overcast
10:31 PM 62.1 °F 48.9 °F 62% 29.97 in 10.0 mi East 5.8 mph - N/A   Overcast
10:55 PM 62.1 °F 48.9 °F 62% 29.95 in 10.0 mi East 8.1 mph - N/A   Overcast
11:55 PM 62.1 °F 48.9 °F 62% 29.93 in 10.0 mi East 5.8 mph - N/A   Overcast